Skip Page Navigation
NASA JPL Caltech
NASA Logo - Jet Propulsion Laboratory + View the NASA Portal
+ Near-Earth Object (NEO) Program
Search JPL
JPL Home Earth Solar System Stars & Galaxies Technology
JPL Solar System Dynamics
BODIES ORBITS EPHEMERIDES TOOLS PHYSICAL DATA DISCOVERY FAQ SITE MAP
JPL Small-Body Database Browser
Search: [ help ]  
(2011 KC15)
Classification: Amor [NEO]          SPK-ID: 3566627
Ephemeris | Orbit Diagram | Orbital Elements | Physical Parameters | Close-Approach Data ]

[ hide orbit diagram ]
Orbit Diagram
Note: Make sure you have Java enabled on your browser to see the applet. This applet is provided as a 3D orbit visualization tool. The applet was implemented using 2-body methods, and hence should not be used for determining accurate long-term trajectories (over several years or decades) or planetary encounter circumstances. For accurate long-term ephemerides, please instead use our Horizons system.
Orbit Viewer

Additional Notes: the orbits shown in the applet are color coded. The planets are white lines, and the asteroid/comet is a blue line. The bright white line indicates the portion of the orbit that is above the ecliptic plane, and the darker portion is below the ecliptic plane. Likewise for the asteroid/comet orbit, the light blue indicates the portion above the ecliptic plane, and the dark blue the portion below the ecliptic plane.

Orbit Viewer applet originally written and kindly provided by Osamu Ajiki (AstroArts), and further modified by Ron Baalke (JPL).


Orbital Elements at Epoch 2456400.5 (2013-Apr-18.0) TDB
Reference: JPL 12 (heliocentric ecliptic J2000)
 Element Value Uncertainty (1-sigma)   Units 
e .5612814030414979 5.3693e-05  
a 2.436449580040573 0.00032491 AU
q 1.068915741315532 1.1741e-05 AU
i 3.830622322194062 0.00024739 deg
node 254.7816839456651 0.00049869 deg
peri 357.8556655655896 0.00010679 deg
M 179.1917385281492 0.035394 deg
tp 2455709.067081768386
(2011-May-27.56708177)
0.001739 JED
period 1389.103385055216
3.80
0.27787
0.0007608
d
yr
n .259159976048644 5.184e-05 deg/d
Q 3.803983418765613 0.00050728 AU
  Orbit Determination Parameters
   # obs. used (total)      64  
   data-arc span      86 days  
   first obs. used      2011-05-26  
   last obs. used      2011-08-20  
   planetary ephem.      DE405  
   SB-pert. ephem.      SB405-CPV-2  
   condition code      5  
   fit RMS      .37273  
   data source      ORB  
   producer      Otto Matic  
   solution date      2011-Sep-14 21:08:47  

Additional Information
 Earth MOID = .0547482 AU 
 T_jup = 3.266 
[ show covariance matrix ]

Ephemeris | Orbit Diagram | Orbital Elements | Physical Parameters | Close-Approach Data ]

Physical Parameter Table
Parameter Symbol Value Units Sigma Reference Notes
absolute magnitude H 21.205 mag .3156 12 autocmod 2.5a

[ show close-approach data ]
Ephemeris | Orbit Diagram | Orbital Elements | Physical Parameters | Close-Approach Data ]
ABOUT SSD CREDITS/AWARDS PRIVACY/COPYRIGHT GLOSSARY LINKS
FirstGov 2013-May-23 04:48 UT
(server date/time)  
NASA Home Page
Site Manager:   Donald K. Yeomans
Webmaster  Alan B. Chamberlin